Location: A�t Bou Chrif
(32.7193°N, 5.2385°W)
Time: 00:45:26
(UTC+00:00)

Lacrosse 5 - Pass Details

Date: 08 August 2020
Orbit: 717 x 720 km, 57.0° (Epoch: 18 September)

Event Time Altitude Azimuth Distance (km) Brightness Sun altitude
Rises 23:20:49 0° 328° (NNW) 3,124 6.0 -39.0°
Reaches altitude 10° 23:23:20 10° 336° (NNW) 2,202 5.1 -39.2°
Enters shadow 23:24:41 18° 344° (NNW) 1,744 4.4 -39.3°
